Location: Piotrkow Trybunalski
(51.4000°N, 19.6830°E)
Time: 07:09:11
(UTC+01:00)

SR - All Passes

Search period start: 06 February 2023 00:00
Search period end: 16 February 2023 00:00
Orbit: 581 x 869 km, 66.7° (Epoch: 05 February)

Date Brightness Start Highest point End Pass type
(mag) Time Alt. Az. Time Alt. Az. Time Alt. Az.
06 Feb - 13:08:55 10° S 13:13:35 37° ESE 13:17:56 10° NE daylight
06 Feb - 14:50:46 10° WSW 14:55:32 44° NW 14:59:59 10° NNE daylight
06 Feb - 16:35:46 10° WNW 16:38:37 16° NNW 16:41:23 10° NNE daylight
06 Feb - 18:20:52 10° NNW 18:22:31 12° N 18:24:07 10° NNE visible
06 Feb - 20:02:39 10° NNW 20:06:09 22° NNE 20:09:32 10° E visible
06 Feb - 21:44:19 10° NW 21:48:40 82° SW 21:52:54 10° SSE visible
06 Feb - 23:28:22 10° W 23:29:50 12° WSW 23:31:18 10° SW night (unlit)
07 Feb - 12:19:43 10° SSE 12:23:23 20° ESE 12:26:52 10° ENE daylight
07 Feb - 13:59:55 10° SW 14:04:57 75° NW 14:09:37 10° NE daylight
07 Feb - 15:43:59 10° WNW 15:47:38 21° NNW 15:51:06 10° NNE daylight
07 Feb - 17:29:44 10° NNW 17:31:20 12° N 17:32:54 10° NNE visible
07 Feb - 19:12:22 10° NNW 19:15:11 16° NNE 19:17:56 10° ENE visible
07 Feb - 20:53:53 10° NNW 20:58:09 53° NE 21:02:18 10° SE visible
07 Feb - 22:36:23 10° WNW 22:39:48 23° WSW 22:43:09 10° SSW night (unlit)
08 Feb - 11:32:33 10° ESE 11:33:19 10° ESE 11:34:05 10° E daylight
08 Feb - 13:09:30 10° SSW 13:14:30 62° ESE 13:19:07 10° NE daylight
08 Feb - 14:52:28 10° W 14:56:47 30° NW 15:00:50 10° NNE daylight
08 Feb - 16:38:01 10° NW 16:40:10 13° NNW 16:42:16 10° NNE daylight
08 Feb - 18:22:02 10° NNW 18:24:06 13° NNE 18:26:09 10° NE visible
08 Feb - 20:03:32 10° NNW 20:07:29 31° NE 20:11:18 10° ESE visible
08 Feb - 21:45:28 10° NW 21:49:35 46° WSW 21:53:38 10° SSE visible
09 Feb - 12:19:39 10° S 12:24:11 33° ESE 12:28:24 10° NE daylight
09 Feb - 14:01:17 10° WSW 14:06:04 48° NW 14:10:32 10° NNE daylight
09 Feb - 15:46:08 10° WNW 15:49:06 16° NNW 15:51:56 10° NNE daylight
09 Feb - 17:31:25 10° NNW 17:32:57 11° N 17:34:28 10° NNE visible
09 Feb - 19:13:15 10° NNW 19:16:38 21° NNE 19:19:55 10° E visible
09 Feb - 20:54:52 10° NW 20:59:13 90° ESE 21:03:27 10° SE visible
09 Feb - 22:38:29 10° W 22:40:27 13° WSW 22:42:25 10° SW night (unlit)
10 Feb - 11:30:36 10° SSE 11:33:59 18° ESE 11:37:14 10° ENE daylight
10 Feb - 13:10:29 10° SW 13:15:30 82° NW 13:20:09 10° NE daylight
10 Feb - 14:54:23 10° W 14:58:07 22° NNW 15:01:39 10° NNE daylight
10 Feb - 16:40:10 10° NNW 16:41:46 12° N 16:43:21 10° NNE daylight
10 Feb - 18:22:58 10° NNW 18:25:39 15° NNE 18:28:15 10° ENE visible
10 Feb - 20:04:27 10° NNW 20:08:40 49° NE 20:12:47 10° ESE visible
10 Feb - 21:46:50 10° WNW 21:50:23 26° WSW 21:53:54 10° S visible
11 Feb - 12:20:09 10° SSW 12:25:04 56° ESE 12:29:37 10° NE daylight
11 Feb - 14:02:54 10° WSW 14:07:17 32° NW 14:11:23 10° NNE daylight
11 Feb - 15:48:23 10° NW 15:50:37 13° NNW 15:52:47 10° NNE daylight
11 Feb - 17:32:36 10° NNW 17:34:33 13° NNE 17:36:28 10° NE visible
11 Feb - 19:14:07 10° NNW 19:17:58 29° NE 19:21:42 10° E visible
11 Feb - 20:55:58 10° NW 21:00:09 51° WSW 21:04:15 10° SSE visible
12 Feb - 11:30:24 10° S 11:34:46 30° ESE 11:38:51 10° NE daylight
12 Feb - 13:11:46 10° WSW 13:16:35 51° NW 13:21:04 10° NNE daylight
12 Feb - 14:56:30 10° WNW 14:59:33 17° NNW 15:02:28 10° NNE daylight
12 Feb - 16:41:55 10° NNW 16:43:23 11° N 16:44:49 10° NNE daylight
12 Feb - 18:23:50 10° NNW 18:27:05 20° NNE 18:30:16 10° ENE visible
12 Feb - 20:05:25 10° NW 20:09:44 82° NE 20:13:59 10° SE visible
12 Feb - 21:48:42 10° WNW 21:51:04 15° WSW 21:53:25 10° SW visible
13 Feb - 10:41:31 10° SSE 10:44:36 16° ESE 10:47:32 10° ENE daylight
13 Feb - 12:21:02 10° SW 12:26:03 89° NW 12:30:39 10° NE daylight
13 Feb - 14:04:47 10° W 14:08:35 23° NNW 14:12:12 10° NNE daylight
13 Feb - 15:50:34 10° NNW 15:52:12 12° N 15:53:47 10° NNE daylight
13 Feb - 17:33:33 10° NNW 17:36:05 15° NNE 17:38:34 10° NE visible
13 Feb - 19:15:01 10° NNW 19:19:10 44° NE 19:23:14 10° ESE visible
13 Feb - 20:57:16 10° NW 21:00:57 29° WSW 21:04:37 10° S visible
14 Feb - 11:30:47 10° SSW 11:35:37 50° ESE 11:40:07 10° NE daylight
14 Feb - 13:13:21 10° WSW 13:17:46 34° NW 13:21:55 10° NNE daylight
14 Feb - 14:58:44 10° NW 15:01:03 14° NNW 15:03:18 10° NNE daylight
14 Feb - 16:43:10 10° NNW 16:44:58 12° N 16:46:44 10° NE daylight
14 Feb - 18:24:41 10° NNW 18:28:25 27° NE 18:32:05 10° E visible
14 Feb - 20:06:28 10° NW 20:10:41 57° WSW 20:14:50 10° SSE visible
15 Feb - 10:41:09 10° S 10:45:20 27° ESE 10:49:16 10° ENE daylight
15 Feb - 12:22:16 10° SW 12:27:06 56° NW 12:31:35 10° NNE daylight
15 Feb - 14:06:51 10° WNW 14:09:59 17° NNW 14:12:59 10° NNE daylight
15 Feb - 15:52:25 10° NNW 15:53:47 11° N 15:55:09 10° NNE daylight
15 Feb - 17:34:24 10° NNW 17:37:32 19° NNE 17:40:36 10° ENE visible
15 Feb - 19:15:56 10° NW 19:20:15 74° NE 19:24:29 10° SE visible
15 Feb - 20:58:59 10° WNW 21:01:38 16° WSW 21:04:19 10° SSW visible
